Flag for USA

Past Weather in 38°12'09.2"N, 85°40'51.6"W, USA — Yesterday and Last 2 Weeks

Currently: 49 °F. Broken clouds. (Weather station: Standiford Field, USA). See more current weather

Past Weather in 38°12'09.2"N, 85°40'51.6"W — Graph

°F

38°12'09.2"N, 85°40'51.6"W Temperature Yesterday

Maximum temperature yesterday: 41 °F (at 11:56 pm)
Minimum temperature yesterday: 27 °F (at 7:56 am)
Average temperature yesterday: 36 °F

High & Low Weather Summary for the Past Weeks

 TemperatureHumidityPressure
High54 °F (Jan 14, 4:56 pm)97% (Jan 17, 9:56 am)30.43 "Hg (Jan 17, 9:56 am)
Low23 °F (Jan 10, 5:56 am)33% (Jan 20, 3:56 pm)29.57 "Hg (Jan 15, 12:56 pm)
Average36 °F72%30.05 "Hg
* Reported Jan 6 12:56 pm — Jan 21 12:56 pm, 38°12'09.2"N, 85°40'51.6"W. Weather by CustomWeather, © 2021

Note: Actual official high and low records may vary slightly from our data, if they occured in-between our weather recording intervals... More about our weather records

38°12'09.2"N, 85°40'51.6"W Weather History for the Previous 24 Hours

Scroll right to see more
 ConditionsComfort  
Time TempWeatherWind HumidityBarometerVisibility
12:56 pm
Thu, Jan 21
49 °FBroken clouds.12 mph59%29.90 "Hg10 mi
12:21 pm47 °FBroken clouds.10 mph64%29.91 "Hg10 mi
11:56 am47 °FPartly sunny.12 mph64%29.93 "Hg10 mi
10:56 am44 °FPartly sunny.10 mph71%29.95 "Hg10 mi
9:56 am42 °FOvercast.12 mph76%29.93 "Hg10 mi
9:41 am42 °FPartly sunny.7 mph79%29.93 "Hg10 mi
8:56 am40 °FBroken clouds.8 mph83%29.93 "Hg10 mi
8:34 am39 °FBroken clouds.6 mph86%29.93 "Hg10 mi
7:56 am39 °FPartly sunny.10 mph86%29.94 "Hg10 mi
6:56 am40 °FOvercast.9 mph83%29.95 "Hg10 mi
6:09 am40 °FOvercast.9 mph83%29.93 "Hg10 mi
5:56 am40 °FOvercast.12 mph83%29.94 "Hg10 mi
4:56 am40 °FOvercast.16 mph80%29.95 "Hg10 mi
3:56 am40 °FOvercast.9 mph80%29.96 "Hg10 mi
3:18 am39 °FOvercast.13 mph79%29.97 "Hg10 mi
2:36 am40 °FMostly cloudy.12 mph70%29.97 "Hg10 mi
1:56 am41 °FSleet. Mostly cloudy.12 mph60%29.97 "Hg10 mi
12:56 am42 °FMostly cloudy.13 mph47%29.97 "Hg10 mi
11:56 pm
Wed, Jan 20
41 °FOvercast.10 mph45%30.01 "Hg10 mi
10:56 pm39 °FOvercast.8 mph41%30.05 "Hg10 mi
9:56 pm37 °FPassing clouds.6 mph39%30.06 "Hg10 mi
8:56 pm35 °FClear.6 mph44%30.09 "Hg10 mi
7:56 pm36 °FPassing clouds.6 mph40%30.13 "Hg10 mi
6:56 pm37 °FPassing clouds.3 mph39%30.13 "Hg10 mi
5:56 pm38 °FPassing clouds.7 mph37%30.16 "Hg10 mi
4:56 pm39 °FSunny.9 mph34%30.17 "Hg10 mi
3:56 pm40 °FSunny.12 mph33%30.19 "Hg10 mi
2:56 pm40 °FPassing clouds.13 mph36%30.22 "Hg10 mi
Weather by CustomWeather, © 2021

See weather overview